Location: Leiter
(44.7178°N, 106.2687°W)
Time: 10:24:31
(UTC+00:00)

CUBESAT XI-V - Visible Passes

Search period start: 30 June 2022 00:00
Search period end: 10 July 2022 00:00
Orbit: 666 x 692 km, 98.1° (Epoch: 29 June)

Date Brightness Start Highest point End Pass type
(mag) Time Alt. Az. Time Alt. Az. Time Alt. Az.
30 Jun ? 07:18:39 10° E 07:20:59 14° ENE 07:23:18 10° NNE visible
30 Jun ? 08:55:29 31° S 08:57:40 75° WSW 09:02:17 10° NNW visible
01 Jul ? 07:53:02 14° ESE 07:56:07 28° ENE 08:00:01 10° N visible
01 Jul ? 09:31:26 24° SW 09:33:18 33° W 09:37:28 10° NNW visible
02 Jul ? 08:28:59 26° SE 08:31:26 60° ENE 08:35:58 10° N visible
02 Jul ? 10:07:23 13° WSW 10:09:07 15° W 10:11:46 10° NW visible
03 Jul ? 07:27:15 10° E 07:30:07 17° ENE 07:33:00 10° NNE visible
03 Jul ? 09:04:57 32° S 09:06:56 60° W 09:11:30 10° NNW visible
04 Jul ? 08:02:30 18° ESE 08:05:18 34° ENE 08:09:26 10° N visible
04 Jul ? 09:40:54 21° SW 09:42:37 27° W 09:46:31 10° NW visible
05 Jul ? 08:38:28 30° SSE 08:40:41 75° ENE 08:45:15 10° N visible
05 Jul ? 10:16:51 10° WSW 10:18:29 12° W 10:20:17 10° WNW visible
06 Jul ? 07:36:01 10° ESE 07:39:16 20° ENE 07:42:34 10° NNE visible
06 Jul ? 09:14:25 31° SSW 09:16:13 48° W 09:20:40 10° NNW visible
07 Jul ? 08:11:59 22° SE 08:14:30 41° ENE 08:18:48 10° N visible
07 Jul ? 09:50:22 18° WSW 09:51:56 22° W 09:55:30 10° NW visible
08 Jul ? 07:11:43 10° E 07:13:20 12° ENE 07:14:57 10° NE visible
08 Jul ? 08:47:56 35° SSE 08:49:54 89° WSW 08:54:31 10° NNW visible
09 Jul ? 07:45:30 13° ESE 07:48:25 24° ENE 07:52:03 10° NNE visible
09 Jul ? 09:23:53 29° SW 09:25:29 39° W 09:29:48 10° NNW visible
